When you browse on this site, cookies collect data to enhance your experience and personalize the content and advertising you see.
Visit our Privacy Policy to learn more. By continuing to use the site, you agree to this use of cookies and data.
  • In Hungary
  • List of Countries
  • For 7 days
  • Water Temperature
  • Satellite Maps
  • Weather Map
  • News
  • Weather Widgets
  • user-avatar
    Login

    Hourly Weather Ditzingen

    Today, 24 February, Sunday

    Time Temperature Precipitation Wind Pressure Humidity
    00:00 +1°C° 0 mm 2 mps 748 mmHg 41%
    01:00 +1°C° 0 mm 2 mps 748 mmHg 40%
    02:00 +1°C° 0 mm 2 mps 748 mmHg 40%
    03:00 +1°C° 0 mm 1 mps 748 mmHg 39%
    04:00 +1°C° 0 mm 1 mps 748 mmHg 38%
    05:00 +1°C° 0 mm 1 mps 748 mmHg 39%
    06:00 +1°C° 0 mm 1 mps 748 mmHg 39%
    07:00 +1°C° 0 mm 1 mps 748 mmHg 39%
    08:00 +3°C° 0 mm 1 mps 748 mmHg 36%
    09:00 +3°C° 0 mm 2 mps 748 mmHg 32%
    10:00 +5°C° 0 mm 2 mps 748 mmHg 29%
    11:00 +6°C° 0 mm 2 mps 748 mmHg 28%
    12:00 +8°C° 0 mm 2 mps 748 mmHg 27%
    13:00 +10°C° 0 mm 2 mps 748 mmHg 27%
    14:00 +10°C° 0 mm 2 mps 748 mmHg 30%
    15:00 +10°C° 0 mm 2 mps 748 mmHg 33%
    16:00 +10°C° 0 mm 2 mps 748 mmHg 37%
    17:00 +9°C° 0 mm 2 mps 748 mmHg 42%
    18:00 +7°C° 0 mm 2 mps 749 mmHg 47%
    19:00 +6°C° 0 mm 1 mps 749 mmHg 52%
    20:00 +6°C° 0 mm 1 mps 749 mmHg 53%
    21:00 +5°C° 0 mm 1 mps 749 mmHg 54%
    22:00 +5°C° 0 mm 1 mps 749 mmHg 55%
    23:00 +4°C° 0 mm 1 mps 749 mmHg 55%

    Tomorrow, 25 February, Monday

    Time Temperature Precipitation Wind Pressure Humidity
    00:00 +4°C° 0 mm 1 mps 749 mmHg 56%
    01:00 +3°C° 0 mm 1 mps 749 mmHg 56%
    02:00 +3°C° 0 mm 1 mps 749 mmHg 56%
    03:00 +3°C° 0 mm 1 mps 749 mmHg 56%
    04:00 +3°C° 0 mm 1 mps 748 mmHg 56%
    05:00 +3°C° 0 mm 1 mps 748 mmHg 57%
    06:00 +3°C° 0 mm 1 mps 749 mmHg 58%
    07:00 +3°C° 0 mm 1 mps 749 mmHg 58%
    08:00 +4°C° 0 mm 1 mps 749 mmHg 55%
    09:00 +6°C° 0 mm 1 mps 749 mmHg 52%
    10:00 +7°C° 0 mm 1 mps 749 mmHg 49%
    11:00 +9°C° 0 mm 1 mps 749 mmHg 48%
    12:00 +10°C° 0 mm 2 mps 749 mmHg 47%
    13:00 +13°C° 0 mm 2 mps 749 mmHg 45%
    14:00 +13°C° 0 mm 2 mps 748 mmHg 48%
    15:00 +14°C° 0 mm 2 mps 748 mmHg 50%
    16:00 +14°C° 0 mm 2 mps 748 mmHg 53%
    17:00 +12°C° 0 mm 2 mps 748 mmHg 60%
    18:00 +10°C° 0 mm 1 mps 748 mmHg 67%
    19:00 +9°C° 0 mm 1 mps 748 mmHg 74%
    20:00 +8°C° 0 mm 1 mps 748 mmHg 76%
    21:00 +7°C° 0 mm 1 mps 748 mmHg 78%
    22:00 +7°C° 0 mm 1 mps 748 mmHg 80%
    23:00 +6°C° 0 mm 1 mps 748 mmHg 81%

    Day after tomorrow, 26 February, Tuesday

    Time Temperature Precipitation Wind Pressure Humidity
    00:00 +6°C° 0 mm 1 mps 748 mmHg 81%
    01:00 +6°C° 0 mm 1 mps 748 mmHg 82%
    02:00 +6°C° 0 mm 1 mps 748 mmHg 82%
    03:00 +5°C° 0 mm 1 mps 748 mmHg 82%
    04:00 +5°C° 0 mm 1 mps 747 mmHg 82%
    05:00 +5°C° 0 mm 1 mps 747 mmHg 82%
    06:00 +5°C° 0 mm 1 mps 747 mmHg 82%
    07:00 +4°C° 0 mm 1 mps 747 mmHg 81%
    08:00 +6°C° 0 mm 1 mps 747 mmHg 75%
    09:00 +8°C° 0 mm 1 mps 747 mmHg 68%
    10:00 +9°C° 0 mm 0 mps 747 mmHg 62%
    11:00 +11°C° 0 mm 1 mps 747 mmHg 56%
    12:00 +13°C° 0 mm 1 mps 747 mmHg 50%
    13:00 +15°C° 0 mm 1 mps 747 mmHg 45%
    14:00 +15°C° 0 mm 1 mps 747 mmHg 45%
    15:00 +15°C° 0 mm 1 mps 746 mmHg 45%
    16:00 +15°C° 0 mm 1 mps 746 mmHg 45%
    17:00 +14°C° 0 mm 1 mps 746 mmHg 51%
    18:00 +12°C° 0 mm 1 mps 746 mmHg 57%
    19:00 +10°C° 0 mm 1 mps 746 mmHg 63%
    20:00 +9°C° 0 mm 1 mps 746 mmHg 65%
    21:00 +9°C° 0 mm 1 mps 746 mmHg 67%
    22:00 +8°C° 0 mm 1 mps 746 mmHg 69%
    23:00 +8°C° 0 mm 1 mps 746 mmHg 69%

    27 February, Wednesday

    Time Temperature Precipitation Wind Pressure Humidity
    00:00 +7°C° 0 mm 1 mps 746 mmHg 70%
    01:00 +7°C° 0 mm 1 mps 745 mmHg 71%
    02:00 +7°C° 0 mm 1 mps 745 mmHg 70%
    03:00 +6°C° 0 mm 1 mps 745 mmHg 70%
    04:00 +6°C° 0 mm 1 mps 744 mmHg 69%
    05:00 +6°C° 0 mm 1 mps 744 mmHg 68%
    06:00 +5°C° 0 mm 1 mps 744 mmHg 67%
    07:00 +5°C° 0 mm 1 mps 744 mmHg 66%
    08:00 +7°C° 0 mm 1 mps 744 mmHg 61%
    09:00 +9°C° 0 mm 1 mps 744 mmHg 56%
    10:00 +10°C° 0 mm 1 mps 744 mmHg 51%
    11:00 +12°C° 0 mm 1 mps 743 mmHg 47%
    12:00 +14°C° 0 mm 1 mps 743 mmHg 42%
    13:00 +16°C° 0 mm 1 mps 742 mmHg 37%
    14:00 +16°C° 0 mm 1 mps 742 mmHg 38%
    15:00 +16°C° 0 mm 1 mps 742 mmHg 39%
    16:00 +16°C° 0 mm 1 mps 741 mmHg 40%
    17:00 +14°C° 0 mm 1 mps 741 mmHg 45%
    18:00 +13°C° 0 mm 1 mps 741 mmHg 51%
    19:00 +11°C° 0 mm 1 mps 741 mmHg 56%
    20:00 +10°C° 0 mm 1 mps 741 mmHg 59%
    21:00 +10°C° 0 mm 1 mps 741 mmHg 62%
    22:00 +9°C° 0 mm 1 mps 740 mmHg 64%
    23:00 +9°C° 0 mm 1 mps 740 mmHg 66%

    28 February, Thursday

    Time Temperature Precipitation Wind Pressure Humidity
    00:00 +8°C° 0 mm 1 mps 740 mmHg 68%
    01:00 +8°C° 0 mm 1 mps 740 mmHg 70%
    02:00 +8°C° 0 mm 1 mps 740 mmHg 71%
    03:00 +7°C° 0 mm 1 mps 739 mmHg 72%
    04:00 +7°C° 0 mm 1 mps 739 mmHg 72%
    05:00 +7°C° 0 mm 1 mps 739 mmHg 72%
    06:00 +7°C° 0 mm 1 mps 739 mmHg 72%
    07:00 +6°C° 0 mm 1 mps 739 mmHg 72%
    08:00 +8°C° 0 mm 1 mps 739 mmHg 66%
    09:00 +10°C° 0 mm 1 mps 739 mmHg 61%
    10:00 +12°C° 0 mm 1 mps 739 mmHg 55%
    11:00 +13°C° 0 mm 1 mps 739 mmHg 52%
    12:00 +14°C° 0 mm 2 mps 739 mmHg 48%
    13:00 +16°C° 0 mm 2 mps 739 mmHg 44%
    14:00 +16°C° 0 mm 2 mps 738 mmHg 45%
    15:00 +16°C° 0 mm 2 mps 738 mmHg 46%
    16:00 +16°C° 0 mm 2 mps 738 mmHg 47%
    17:00 +14°C° 0 mm 2 mps 738 mmHg 53%
    18:00 +12°C° 0 mm 1 mps 738 mmHg 60%
    19:00 +11°C° 0 mm 1 mps 738 mmHg 66%
    20:00 +10°C° 0 mm 1 mps 738 mmHg 68%
    21:00 +10°C° 0 mm 1 mps 738 mmHg 70%
    22:00 +9°C° 0 mm 1 mps 738 mmHg 73%
    23:00 +9°C° 0 mm 1 mps 738 mmHg 75%

    1 March, Friday

    Time Temperature Precipitation Wind Pressure Humidity
    00:00 +8°C° 0 mm 1 mps 738 mmHg 78%
    01:00 +8°C° 0 mm 1 mps 738 mmHg 80%
    02:00 +8°C° 0 mm 1 mps 738 mmHg 83%
    03:00 +7°C° 0 mm 1 mps 738 mmHg 85%
    04:00 +7°C° 0 mm 1 mps 738 mmHg 88%
    05:00 +7°C° 0 mm 1 mps 738 mmHg 89%
    06:00 +6°C° 0 mm 1 mps 738 mmHg 90%
    07:00 +6°C° 0 mm 1 mps 738 mmHg 91%
    08:00 +7°C° 0 mm 1 mps 738 mmHg 87%
    09:00 +9°C° 0 mm 1 mps 738 mmHg 83%
    10:00 +10°C° 0 mm 1 mps 738 mmHg 79%
    11:00 +11°C° 0 mm 1 mps 738 mmHg 76%
    12:00 +12°C° 0 mm 1 mps 738 mmHg 73%
    13:00 +13°C° 0 mm 1 mps 738 mmHg 70%
    14:00 +13°C° 0 mm 2 mps 737 mmHg 68%
    15:00 +13°C° 0 mm 2 mps 737 mmHg 67%
    16:00 +13°C° 0 mm 2 mps 737 mmHg 66%
    17:00 +12°C° 0 mm 2 mps 737 mmHg 70%
    18:00 +10°C° 0 mm 1 mps 737 mmHg 75%
    19:00 +9°C° 0 mm 1 mps 737 mmHg 79%
    20:00 +9°C° 0 mm 1 mps 737 mmHg 81%
    21:00 +8°C° 0 mm 1 mps 737 mmHg 83%
    22:00 +7°C° 0 mm 1 mps 738 mmHg 84%
    23:00 +7°C° 0 mm 1 mps 738 mmHg 83%
    Show more